Time,TemperatureF,DewpointF,PressureIn,WindDirection,WindDirectionDegrees,WindSpeedMPH,WindSpeedGustMPH,Humidity,HourlyPrecipIn,Conditions,Clouds,dailyrainin,SolarRadiationWatts/m^2,SoftwareType,DateUTC
2013-01-16 00:12:00,7.0,3.0,-100.00,WSW,254,9.0,16.0,82,0.00,,,0.00,0.000000,,2013-01-16 07:12:00,
2013-01-16 00:22:00,7.0,3.0,-100.00,WSW,254,9.0,16.0,82,0.00,,,0.00,0.000000,,2013-01-16 07:22:00,
2013-01-16 00:33:00,7.0,3.0,-100.00,WSW,254,9.0,16.0,82,0.00,,,0.00,0.000000,,2013-01-16 07:33:00,
2013-01-16 00:42:00,7.0,3.0,-100.00,WSW,254,9.0,16.0,82,0.00,,,0.00,0.000000,,2013-01-16 07:42:00,
2013-01-16 00:52:00,7.0,3.0,-100.00,WSW,252,13.0,21.0,83,0.00,,,0.00,0.000000,,2013-01-16 07:52:00,
2013-01-16 01:12:00,7.0,3.0,-100.00,WSW,252,13.0,21.0,83,0.00,,,0.00,0.000000,,2013-01-16 08:12:00,
2013-01-16 01:22:00,7.0,3.0,-100.00,WSW,252,13.0,21.0,83,0.00,,,0.00,0.000000,,2013-01-16 08:22:00,
2013-01-16 01:32:00,7.0,3.0,-100.00,WSW,252,13.0,21.0,83,0.00,,,0.00,0.000000,,2013-01-16 08:32:00,
2013-01-16 01:42:00,7.0,3.0,-100.00,WSW,252,13.0,21.0,83,0.00,,,0.00,0.000000,,2013-01-16 08:42:00,
2013-01-16 01:52:00,9.0,5.0,-100.00,WSW,255,12.0,25.0,83,0.00,,,0.00,0.000000,,2013-01-16 08:52:00,
2013-01-16 02:22:00,9.0,5.0,-100.00,WSW,255,12.0,25.0,83,0.00,,,0.00,0.000000,,2013-01-16 09:22:00,
2013-01-16 02:32:00,9.0,5.0,-100.00,WSW,255,12.0,25.0,83,0.00,,,0.00,0.000000,,2013-01-16 09:32:00,
2013-01-16 02:42:00,9.0,5.0,-100.00,WSW,255,12.0,25.0,83,0.00,,,0.00,0.000000,,2013-01-16 09:42:00,
2013-01-16 02:52:00,10.0,6.0,-100.00,WSW,249,12.0,27.0,84,0.00,,,0.00,0.000000,,2013-01-16 09:52:00,
2013-01-16 03:12:00,10.0,6.0,-100.00,WSW,249,12.0,27.0,84,0.00,,,0.00,0.000000,,2013-01-16 10:12:00,
2013-01-16 03:22:00,10.0,6.0,-100.00,WSW,249,12.0,27.0,84,0.00,,,0.00,0.000000,,2013-01-16 10:22:00,
2013-01-16 03:32:00,10.0,6.0,-100.00,WSW,249,12.0,27.0,84,0.00,,,0.00,0.000000,,2013-01-16 10:32:00,
2013-01-16 03:42:00,10.0,6.0,-100.00,WSW,249,12.0,27.0,84,0.00,,,0.00,0.000000,,2013-01-16 10:42:00,
2013-01-16 03:52:00,9.0,5.0,-100.00,West,260,10.0,19.0,84,0.00,,,0.00,0.000000,,2013-01-16 10:52:00,
2013-01-16 04:12:00,9.0,5.0,-100.00,West,260,10.0,19.0,84,0.00,,,0.00,0.000000,,2013-01-16 11:12:00,
2013-01-16 04:22:00,9.0,5.0,-100.00,West,260,10.0,19.0,84,0.00,,,0.00,0.000000,,2013-01-16 11:22:00,
2013-01-16 04:33:00,9.0,5.0,-100.00,West,260,10.0,19.0,84,0.00,,,0.00,0.000000,,2013-01-16 11:33:00,
2013-01-16 04:42:00,9.0,5.0,-100.00,West,260,10.0,19.0,84,0.00,,,0.00,0.000000,,2013-01-16 11:42:00,
2013-01-16 04:52:00,9.0,5.0,-100.00,WSW,257,5.0,13.0,84,0.00,,,0.00,0.000000,,2013-01-16 11:52:00,
2013-01-16 05:13:00,9.0,5.0,-100.00,WSW,257,5.0,13.0,84,0.00,,,0.00,0.000000,,2013-01-16 12:13:00,
2013-01-16 05:22:00,9.0,5.0,-100.00,WSW,257,5.0,13.0,84,0.00,,,0.00,0.000000,,2013-01-16 12:22:00,
2013-01-16 05:33:00,9.0,5.0,-100.00,WSW,257,5.0,13.0,84,0.00,,,0.00,0.000000,,2013-01-16 12:33:00,
2013-01-16 05:43:00,9.0,5.0,-100.00,WSW,257,5.0,13.0,84,0.00,,,0.00,0.000000,,2013-01-16 12:43:00,
2013-01-16 05:52:00,8.0,4.0,-100.00,WSW,247,10.0,14.0,84,0.00,,,0.00,0.000000,,2013-01-16 12:52:00,
2013-01-16 06:12:00,8.0,4.0,-100.00,WSW,247,10.0,14.0,84,0.00,,,0.00,0.000000,,2013-01-16 13:12:00,
2013-01-16 06:22:00,8.0,4.0,-100.00,WSW,247,10.0,14.0,84,0.00,,,0.00,0.000000,,2013-01-16 13:22:00,
2013-01-16 06:33:00,8.0,4.0,-100.00,WSW,247,10.0,14.0,84,0.00,,,0.00,0.000000,,2013-01-16 13:33:00,
2013-01-16 06:43:00,8.0,4.0,-100.00,WSW,247,10.0,14.0,84,0.00,,,0.00,0.000000,,2013-01-16 13:43:00,
2013-01-16 06:52:00,8.0,4.0,-100.00,West,265,9.0,15.0,83,0.00,,,0.00,0.000000,,2013-01-16 13:52:00,
2013-01-16 07:12:00,8.0,4.0,-100.00,West,265,9.0,15.0,83,0.00,,,0.00,0.000000,,2013-01-16 14:12:00,
2013-01-16 07:23:00,8.0,4.0,-100.00,West,265,9.0,15.0,83,0.00,,,0.00,0.000000,,2013-01-16 14:23:00,
2013-01-16 07:33:00,8.0,4.0,-100.00,West,265,9.0,15.0,83,0.00,,,0.00,0.000000,,2013-01-16 14:33:00,
2013-01-16 07:42:00,8.0,4.0,-100.00,West,265,9.0,15.0,83,0.00,,,0.00,0.000000,,2013-01-16 14:42:00,
2013-01-16 07:52:00,11.0,7.0,-100.00,WSW,255,11.0,19.0,84,0.00,,,0.00,11.000000,,2013-01-16 14:52:00,
2013-01-16 08:12:00,11.0,7.0,-100.00,WSW,255,11.0,19.0,84,0.00,,,0.00,11.000000,,2013-01-16 15:12:00,
2013-01-16 08:23:00,11.0,7.0,-100.00,WSW,255,11.0,19.0,84,0.00,,,0.00,11.000000,,2013-01-16 15:23:00,
2013-01-16 08:33:00,11.0,7.0,-100.00,WSW,255,11.0,19.0,84,0.00,,,0.00,11.000000,,2013-01-16 15:33:00,
2013-01-16 08:43:00,11.0,7.0,-100.00,WSW,255,11.0,19.0,84,0.00,,,0.00,11.000000,,2013-01-16 15:43:00,
2013-01-16 08:52:00,14.0,9.0,-100.00,WSW,258,13.0,20.0,80,0.00,,,0.00,129.000000,,2013-01-16 15:52:00,
2013-01-16 09:12:00,14.0,9.0,-100.00,WSW,258,13.0,20.0,80,0.00,,,0.00,129.000000,,2013-01-16 16:12:00,
2013-01-16 09:22:00,14.0,9.0,-100.00,WSW,258,13.0,20.0,80,0.00,,,0.00,129.000000,,2013-01-16 16:22:00,
2013-01-16 09:33:00,14.0,9.0,-100.00,WSW,258,13.0,20.0,80,0.00,,,0.00,129.000000,,2013-01-16 16:33:00,
2013-01-16 09:42:00,14.0,9.0,-100.00,WSW,258,13.0,20.0,80,0.00,,,0.00,129.000000,,2013-01-16 16:42:00,
2013-01-16 09:52:00,16.0,9.0,-100.00,West,262,14.0,23.0,75,0.00,,,0.00,242.000000,,2013-01-16 16:52:00,
2013-01-16 10:23:00,16.0,9.0,-100.00,West,262,14.0,23.0,75,0.00,,,0.00,242.000000,,2013-01-16 17:23:00,
2013-01-16 10:33:00,16.0,9.0,-100.00,West,262,14.0,23.0,75,0.00,,,0.00,242.000000,,2013-01-16 17:33:00,
2013-01-16 10:43:00,16.0,9.0,-100.00,West,262,14.0,23.0,75,0.00,,,0.00,242.000000,,2013-01-16 17:43:00,
2013-01-16 10:52:00,22.0,11.0,-100.00,West,268,15.0,24.0,63,0.00,,,0.00,425.000000,,2013-01-16 17:52:00,
2013-01-16 11:13:00,22.0,11.0,-100.00,West,268,15.0,24.0,63,0.00,,,0.00,425.000000,,2013-01-16 18:13:00,
2013-01-16 11:23:00,22.0,11.0,-100.00,West,268,15.0,24.0,63,0.00,,,0.00,425.000000,,2013-01-16 18:23:00,
2013-01-16 11:33:00,22.0,11.0,-100.00,West,268,15.0,24.0,63,0.00,,,0.00,425.000000,,2013-01-16 18:33:00,
2013-01-16 11:42:00,22.0,11.0,-100.00,West,268,15.0,24.0,63,0.00,,,0.00,425.000000,,2013-01-16 18:42:00,
2013-01-16 11:52:00,26.0,12.0,-100.00,WSW,258,13.0,26.0,54,0.00,,,0.00,605.000000,,2013-01-16 18:52:00,
2013-01-16 12:12:00,26.0,12.0,-100.00,WSW,258,13.0,26.0,54,0.00,,,0.00,605.000000,,2013-01-16 19:12:00,
2013-01-16 12:23:00,26.0,12.0,-100.00,WSW,258,13.0,26.0,54,0.00,,,0.00,605.000000,,2013-01-16 19:23:00,
2013-01-16 12:33:00,26.0,12.0,-100.00,WSW,258,13.0,26.0,54,0.00,,,0.00,605.000000,,2013-01-16 19:33:00,
2013-01-16 12:43:00,26.0,12.0,-100.00,WSW,258,13.0,26.0,54,0.00,,,0.00,605.000000,,2013-01-16 19:43:00,
2013-01-16 12:52:00,28.0,12.0,-100.00,WSW,246,11.0,20.0,50,0.00,,,0.00,623.000000,,2013-01-16 19:52:00,
2013-01-16 13:12:00,28.0,12.0,-100.00,WSW,246,11.0,20.0,50,0.00,,,0.00,623.000000,,2013-01-16 20:12:00,
2013-01-16 13:23:00,28.0,12.0,-100.00,WSW,246,11.0,20.0,50,0.00,,,0.00,623.000000,,2013-01-16 20:23:00,
2013-01-16 13:33:00,28.0,12.0,-100.00,WSW,246,11.0,20.0,50,0.00,,,0.00,623.000000,,2013-01-16 20:33:00,
2013-01-16 13:42:00,28.0,12.0,-100.00,WSW,246,11.0,20.0,50,0.00,,,0.00,623.000000,,2013-01-16 20:42:00,
2013-01-16 13:52:00,29.0,12.0,-100.00,WSW,245,12.0,19.0,49,0.00,,,0.00,587.000000,,2013-01-16 20:52:00,
2013-01-16 14:22:00,29.0,12.0,-100.00,WSW,245,12.0,19.0,49,0.00,,,0.00,587.000000,,2013-01-16 21:22:00,
2013-01-16 14:33:00,29.0,12.0,-100.00,WSW,245,12.0,19.0,49,0.00,,,0.00,587.000000,,2013-01-16 21:33:00,
2013-01-16 14:43:00,29.0,12.0,-100.00,WSW,245,12.0,19.0,49,0.00,,,0.00,587.000000,,2013-01-16 21:43:00,
2013-01-16 14:52:00,28.0,12.0,-100.00,WSW,237,8.0,22.0,51,0.00,,,0.00,423.000000,,2013-01-16 21:52:00,
2013-01-16 15:23:00,28.0,12.0,-100.00,WSW,237,8.0,22.0,51,0.00,,,0.00,423.000000,,2013-01-16 22:23:00,
2013-01-16 15:33:00,28.0,12.0,-100.00,WSW,237,8.0,22.0,51,0.00,,,0.00,423.000000,,2013-01-16 22:33:00,
2013-01-16 15:43:00,28.0,12.0,-100.00,WSW,237,8.0,22.0,51,0.00,,,0.00,423.000000,,2013-01-16 22:43:00,
2013-01-16 15:52:00,28.0,12.0,-100.00,SW,231,8.0,18.0,51,0.00,,,0.00,315.000000,,2013-01-16 22:52:00,
2013-01-16 16:23:00,28.0,12.0,-100.00,SW,231,8.0,18.0,51,0.00,,,0.00,315.000000,,2013-01-16 23:23:00,
2013-01-16 16:32:00,28.0,12.0,-100.00,SW,231,8.0,18.0,51,0.00,,,0.00,315.000000,,2013-01-16 23:32:00,
2013-01-16 16:42:00,28.0,12.0,-100.00,SW,231,8.0,18.0,51,0.00,,,0.00,315.000000,,2013-01-16 23:42:00,
2013-01-16 16:52:00,22.0,10.0,-100.00,WSW,237,8.0,15.0,60,0.00,,,0.00,102.000000,,2013-01-16 23:52:00,
2013-01-16 17:22:00,22.0,10.0,-100.00,WSW,237,8.0,15.0,60,0.00,,,0.00,102.000000,,2013-01-17 00:22:00,
2013-01-16 17:32:00,22.0,10.0,-100.00,WSW,237,8.0,15.0,60,0.00,,,0.00,102.000000,,2013-01-17 00:32:00,
2013-01-16 17:42:00,22.0,10.0,-100.00,WSW,237,8.0,15.0,60,0.00,,,0.00,102.000000,,2013-01-17 00:42:00,
2013-01-16 17:52:00,17.0,9.0,-100.00,West,269,8.0,14.0,70,0.00,,,0.00,3.000000,,2013-01-17 00:52:00,
2013-01-16 18:22:00,17.0,9.0,-100.00,West,269,8.0,14.0,70,0.00,,,0.00,3.000000,,2013-01-17 01:22:00,
2013-01-16 18:33:00,17.0,9.0,-100.00,West,269,8.0,14.0,70,0.00,,,0.00,3.000000,,2013-01-17 01:33:00,
2013-01-16 18:42:00,17.0,9.0,-100.00,West,269,8.0,14.0,70,0.00,,,0.00,3.000000,,2013-01-17 01:42:00,
2013-01-16 18:52:00,16.0,9.0,-100.00,WSW,255,10.0,14.0,73,0.00,,,0.00,0.000000,,2013-01-17 01:52:00,
2013-01-16 19:12:00,16.0,9.0,-100.00,WSW,255,10.0,14.0,73,0.00,,,0.00,0.000000,,2013-01-17 02:12:00,
2013-01-16 19:22:00,16.0,9.0,-100.00,WSW,255,10.0,14.0,73,0.00,,,0.00,0.000000,,2013-01-17 02:22:00,
2013-01-16 19:32:00,16.0,9.0,-100.00,WSW,255,10.0,14.0,73,0.00,,,0.00,0.000000,,2013-01-17 02:32:00,
2013-01-16 19:42:00,16.0,9.0,-100.00,WSW,255,10.0,14.0,73,0.00,,,0.00,0.000000,,2013-01-17 02:42:00,
2013-01-16 19:52:00,16.0,8.0,-100.00,West,262,9.0,15.0,71,0.00,,,0.00,0.000000,,2013-01-17 02:52:00,
2013-01-16 20:12:00,16.0,8.0,-100.00,West,262,9.0,15.0,71,0.00,,,0.00,0.000000,,2013-01-17 03:12:00,
2013-01-16 20:22:00,16.0,8.0,-100.00,West,262,9.0,15.0,71,0.00,,,0.00,0.000000,,2013-01-17 03:22:00,
2013-01-16 20:32:00,16.0,8.0,-100.00,West,262,9.0,15.0,71,0.00,,,0.00,0.000000,,2013-01-17 03:32:00,
2013-01-16 20:42:00,16.0,8.0,-100.00,West,262,9.0,15.0,71,0.00,,,0.00,0.000000,,2013-01-17 03:42:00,
2013-01-16 20:52:00,14.0,6.0,-100.00,West,262,5.0,14.0,71,0.00,,,0.00,0.000000,,2013-01-17 03:52:00,
2013-01-16 21:12:00,14.0,6.0,-100.00,West,262,5.0,14.0,71,0.00,,,0.00,0.000000,,2013-01-17 04:12:00,
2013-01-16 21:22:00,14.0,6.0,-100.00,West,262,5.0,14.0,71,0.00,,,0.00,0.000000,,2013-01-17 04:22:00,
2013-01-16 21:32:00,14.0,6.0,-100.00,West,262,5.0,14.0,71,0.00,,,0.00,0.000000,,2013-01-17 04:32:00,
2013-01-16 21:42:00,14.0,6.0,-100.00,West,262,5.0,14.0,71,0.00,,,0.00,0.000000,,2013-01-17 04:42:00,
2013-01-16 21:52:00,14.0,6.0,-100.00,SW,232,5.0,11.0,71,0.00,,,0.00,0.000000,,2013-01-17 04:52:00,
2013-01-16 22:22:00,14.0,6.0,-100.00,SW,232,5.0,11.0,71,0.00,,,0.00,0.000000,,2013-01-17 05:22:00,
2013-01-16 22:33:00,14.0,6.0,-100.00,SW,232,5.0,11.0,71,0.00,,,0.00,0.000000,,2013-01-17 05:33:00,
2013-01-16 22:42:00,14.0,6.0,-100.00,SW,232,5.0,11.0,71,0.00,,,0.00,0.000000,,2013-01-17 05:42:00,
2013-01-16 22:52:00,13.0,5.0,-100.00,WSW,244,2.0,11.0,71,0.00,,,0.00,0.000000,,2013-01-17 05:52:00,
2013-01-16 23:12:00,13.0,5.0,-100.00,WSW,244,2.0,11.0,71,0.00,,,0.00,0.000000,,2013-01-17 06:12:00,
2013-01-16 23:22:00,13.0,5.0,-100.00,WSW,244,2.0,11.0,71,0.00,,,0.00,0.000000,,2013-01-17 06:22:00,
2013-01-16 23:32:00,13.0,5.0,-100.00,WSW,244,2.0,11.0,71,0.00,,,0.00,0.000000,,2013-01-17 06:32:00,
2013-01-16 23:42:00,13.0,5.0,-100.00,WSW,244,2.0,11.0,71,0.00,,,0.00,0.000000,,2013-01-17 06:42:00,
2013-01-16 23:52:00,12.0,6.0,-100.00,SW,227,4.0,7.0,76,0.00,,,0.00,0.000000,,2013-01-17 06:52:00,